星链-35994(STARLINK-35994)

导读

STARLINK-35994是美国于2025年12月1日发射的星链卫星,星链是美国SpaceX公司打造的低轨巨型卫星星座,主打全球覆盖的高速卫星互联网服务,该卫星是星链星座扩容阶段的组成部分,入轨后将补充覆盖区域、提升星座整体通信带宽与稳定性,进一步扩展星链在民用通信、特殊场景联网甚至军事应用领域的服务能力。

基本信息
目录编号:
66818
目录名称:
STARLINK-35994
国际标识:
2025-278AD
轨道中心:
EARTH
卫星名称:
星链-35994
卫星全名:
星链-35994(STARLINK-35994)
卫星状态:
在轨 (已飞行194 天)
发射日期:
2025-12-01 UTC
国别 :
美国 (US)
星等 :
--
轨道信息
数据来源 国际轨道数据
星历时间: 2026-06-12T09:38:38+0800
1天前
查看轨道信息
半长轴: 6861.156km
偏心率: 0.000149
轨道倾角: 42.999°
近地点辐角 41.510°
升交点赤经 301.321°
平近点角 318.587°
近地点: 481.996km
远地点: 484.042km
周期: 94.266分钟
每日圈数: 15.275902
详细信息
固有亮度:
5
最大亮度:
2.5
卫星平台:
Starlink V1.0
覆盖范围:
全球
运营商:
太空探索技术公司
运营商所在国:
美国
制造商(研发单位):
太空探索技术公司
制造商所在国:
美国
使用方式:
暂无
卫星简介
Starlink 计划是 SpaceX 推出的全球卫星互联网项目,通过发射低轨道卫星,为全球尤其是偏远地区提供高速、低延迟的互联网服务。自 2019 年起,Starlink 已部署数千颗卫星,旨在缩小全球数字鸿沟,推动互联网普及。该项目还为军事、航空等行业提供通信支持,带来广泛经济效益。
2D轨道图
3D轨道图
轨道高度分析图
轨道倾角分析图
轨道综合分析图
查看轨道综合分析图